INTELSAT 906 (IS-906)

Last updated on Jan. 25, 2020, 4:43 a.m. UTC

1 27513U 02041A   20024.75604966  .00000006  00000-0  00000+0 0  9991
2 27513   0.0166 103.7297 0002313 216.1788 139.9409  1.00272330 63556
UTC
Height (km)
Latitude
Longitude
Inclination
Orbital Period
UTC large
Height (km)
Speed (km/s)
/
Latitude / Longitude
Inclination (degrees)
Orbital Period (minutes)
Azimuth
Elevation
Range (km)
Doppler Factor
iOS Compass Heading
iOS Angle

Next 30 passes for location: Hong Kong

Rise time Rise Azimuth (degrees) Set time Set Azimuth (degrees) Duration Max altitude (degrees)

No matching passes for this satellites